• In Germany
  • List of Countries
  • For 7 days
  • Water Temperature
  • Satellite Maps
  • Weather Map
  • Weather Widgets
  • user-avatar
    Login

    Hourly Weather Innsbruck

    Today, 13 December, Wednesday

    Time Temperature Precipitation Wind Pressure Humidity
    00:00 -12°C° 0.3 mm 2 mps 590 mmHg 94%
    01:00 -10°C° 0 mm 1 mps 590 mmHg 95%
    02:00 -11°C° 0.1 mm 1 mps 589 mmHg 94%
    03:00 -12°C° 0.1 mm 1 mps 589 mmHg 93%
    04:00 -13°C° 0.1 mm 1 mps 589 mmHg 92%
    05:00 -13°C° 0 mm 1 mps 588 mmHg 90%
    06:00 -14°C° 0 mm 1 mps 588 mmHg 89%
    07:00 -14°C° 0 mm 1 mps 588 mmHg 86%
    08:00 -12°C° 0 mm 1 mps 589 mmHg 83%
    09:00 -11°C° 0 mm 1 mps 589 mmHg 80%
    10:00 -10°C° 0 mm 1 mps 590 mmHg 77%
    11:00 -9°C° 0 mm 2 mps 590 mmHg 75%
    12:00 -8°C° 0 mm 2 mps 590 mmHg 72%
    13:00 -6°C° 0 mm 1 mps 590 mmHg 69%
    14:00 -7°C° 0 mm 2 mps 589 mmHg 73%
    15:00 -8°C° 0 mm 2 mps 588 mmHg 77%
    16:00 -10°C° 0 mm 3 mps 587 mmHg 82%
    17:00 -12°C° 0 mm 3 mps 587 mmHg 81%
    18:00 -13°C° 0 mm 3 mps 586 mmHg 81%
    19:00 -13°C° 0 mm 3 mps 586 mmHg 80%
    20:00 -13°C° 0 mm 3 mps 586 mmHg 79%
    21:00 -13°C° 0 mm 3 mps 585 mmHg 78%
    22:00 -12°C° 0 mm 3 mps 585 mmHg 76%
    23:00 -12°C° 0.1 mm 4 mps 585 mmHg 76%

    Tomorrow, 14 December, Thursday

    Time Temperature Precipitation Wind Pressure Humidity
    00:00 -11°C° 0.1 mm 4 mps 585 mmHg 76%
    01:00 -11°C° 0.1 mm 4 mps 584 mmHg 76%
    02:00 -10°C° 0.1 mm 4 mps 584 mmHg 76%
    03:00 -10°C° 0.1 mm 4 mps 584 mmHg 76%
    04:00 -10°C° 0.1 mm 4 mps 584 mmHg 76%
    05:00 -9°C° 0.2 mm 3 mps 584 mmHg 78%
    06:00 -9°C° 0.2 mm 3 mps 584 mmHg 80%
    07:00 -9°C° 0.2 mm 3 mps 584 mmHg 82%
    08:00 -8°C° 0.3 mm 2 mps 584 mmHg 83%
    09:00 -7°C° 0.3 mm 2 mps 585 mmHg 84%
    10:00 -6°C° 0.3 mm 2 mps 586 mmHg 85%
    11:00 -6°C° 0.6 mm 2 mps 586 mmHg 87%
    12:00 -6°C° 0.6 mm 2 mps 585 mmHg 88%
    13:00 -4°C° 0.6 mm 1 mps 585 mmHg 90%
    14:00 -4°C° 0.5 mm 1 mps 585 mmHg 91%
    15:00 -6°C° 0.5 mm 1 mps 585 mmHg 92%
    16:00 -6°C° 0.5 mm 1 mps 584 mmHg 93%
    17:00 -7°C° 0.2 mm 2 mps 584 mmHg 93%
    18:00 -8°C° 0.2 mm 2 mps 583 mmHg 92%
    19:00 -8°C° 0.2 mm 2 mps 583 mmHg 91%
    20:00 -9°C° 0.4 mm 2 mps 582 mmHg 91%
    21:00 -9°C° 0.4 mm 2 mps 582 mmHg 91%
    22:00 -10°C° 0.4 mm 3 mps 581 mmHg 91%
    23:00 -10°C° 0.4 mm 3 mps 581 mmHg 91%

    Day after tomorrow, 15 December, Friday

    Time Temperature Precipitation Wind Pressure Humidity
    00:00 -10°C° 0.4 mm 3 mps 580 mmHg 91%
    01:00 -10°C° 0.4 mm 3 mps 580 mmHg 91%
    02:00 -10°C° 1.1 mm 3 mps 580 mmHg 92%
    03:00 -9°C° 1.1 mm 2 mps 580 mmHg 94%
    04:00 -8°C° 1.1 mm 2 mps 580 mmHg 95%
    05:00 -8°C° 0.9 mm 2 mps 580 mmHg 95%
    06:00 -8°C° 0.9 mm 2 mps 581 mmHg 94%
    07:00 -8°C° 0.9 mm 2 mps 581 mmHg 94%
    08:00 -8°C° 0 mm 2 mps 581 mmHg 92%
    09:00 -7°C° 0 mm 1 mps 582 mmHg 90%
    10:00 -7°C° 0 mm 1 mps 582 mmHg 88%
    11:00 -7°C° 0 mm 1 mps 582 mmHg 84%
    12:00 -6°C° 0 mm 1 mps 582 mmHg 80%
    13:00 -4°C° 0 mm 1 mps 582 mmHg 76%
    14:00 -6°C° 0 mm 1 mps 582 mmHg 80%
    15:00 -8°C° 0 mm 1 mps 581 mmHg 85%
    16:00 -9°C° 0 mm 1 mps 581 mmHg 89%
    17:00 -10°C° 0 mm 1 mps 581 mmHg 88%
    18:00 -10°C° 0 mm 1 mps 581 mmHg 88%
    19:00 -13°C° 0 mm 2 mps 581 mmHg 87%
    20:00 -14°C° 0 mm 2 mps 581 mmHg 85%
    21:00 -14°C° 0 mm 2 mps 581 mmHg 82%
    22:00 -13°C° 0 mm 1 mps 581 mmHg 80%
    23:00 -13°C° 0 mm 1 mps 581 mmHg 79%

    16 December, Saturday

    Time Temperature Precipitation Wind Pressure Humidity
    00:00 -16°C° 0 mm 2 mps 581 mmHg 78%
    01:00 -16°C° 0 mm 2 mps 581 mmHg 77%
    02:00 -16°C° 0 mm 2 mps 581 mmHg 79%
    03:00 -15°C° 0 mm 2 mps 581 mmHg 80%
    04:00 -13°C° 0 mm 1 mps 582 mmHg 81%
    05:00 -13°C° 0 mm 1 mps 582 mmHg 82%
    06:00 -13°C° 0 mm 1 mps 582 mmHg 84%
    07:00 -13°C° 0 mm 1 mps 583 mmHg 85%
    08:00 -12°C° 0.1 mm 1 mps 584 mmHg 85%
    09:00 -11°C° 0.1 mm 1 mps 585 mmHg 85%
    10:00 -10°C° 0.1 mm 1 mps 586 mmHg 85%
    11:00 -9°C° 0.2 mm 1 mps 586 mmHg 85%
    12:00 -8°C° 0.2 mm 1 mps 587 mmHg 85%
    13:00 -8°C° 0.2 mm 2 mps 587 mmHg 86%
    14:00 -9°C° 0.3 mm 2 mps 587 mmHg 88%
    15:00 -9°C° 0.3 mm 2 mps 587 mmHg 91%
    16:00 -10°C° 0.3 mm 2 mps 587 mmHg 93%
    17:00 -10°C° 0.3 mm 2 mps 588 mmHg 94%
    18:00 -12°C° 0.3 mm 2 mps 588 mmHg 94%
    19:00 -12°C° 0.3 mm 2 mps 588 mmHg 95%
    20:00 -12°C° 0.2 mm 2 mps 589 mmHg 95%
    21:00 -13°C° 0.2 mm 2 mps 589 mmHg 95%
    22:00 -13°C° 0.2 mm 2 mps 589 mmHg 94%
    23:00 -13°C° 0.3 mm 2 mps 589 mmHg 94%

    17 December, Sunday

    Time Temperature Precipitation Wind Pressure Humidity
    00:00 -14°C° 0.3 mm 2 mps 589 mmHg 94%
    01:00 -14°C° 0.3 mm 2 mps 589 mmHg 93%
    02:00 -14°C° 0.5 mm 2 mps 590 mmHg 94%
    03:00 -14°C° 0.5 mm 2 mps 590 mmHg 94%
    04:00 -14°C° 0.5 mm 2 mps 590 mmHg 94%
    05:00 -14°C° 0.4 mm 2 mps 591 mmHg 94%
    06:00 -14°C° 0.4 mm 2 mps 591 mmHg 94%
    07:00 -14°C° 0.4 mm 2 mps 591 mmHg 94%
    08:00 -14°C° 0.3 mm 2 mps 592 mmHg 93%
    09:00 -13°C° 0.3 mm 2 mps 593 mmHg 93%
    10:00 -13°C° 0.3 mm 2 mps 593 mmHg 92%
    11:00 -13°C° 0.2 mm 2 mps 593 mmHg 90%
    12:00 -12°C° 0.2 mm 2 mps 593 mmHg 88%
    13:00 -12°C° 0.2 mm 2 mps 594 mmHg 86%
    14:00 -13°C° 0.2 mm 2 mps 594 mmHg 88%
    15:00 -13°C° 0.2 mm 2 mps 593 mmHg 90%
    16:00 -14°C° 0.2 mm 2 mps 593 mmHg 92%
    17:00 -14°C° 0.3 mm 2 mps 594 mmHg 92%
    18:00 -15°C° 0.3 mm 2 mps 594 mmHg 92%
    19:00 -15°C° 0.3 mm 2 mps 595 mmHg 92%
    20:00 -16°C° 0.2 mm 2 mps 595 mmHg 92%
    21:00 -17°C° 0.2 mm 2 mps 595 mmHg 92%
    22:00 -17°C° 0.2 mm 2 mps 595 mmHg 91%
    23:00 -18°C° 0 mm 2 mps 594 mmHg 90%

    18 December, Monday

    Time Temperature Precipitation Wind Pressure Humidity
    00:00 -18°C° 0 mm 2 mps 594 mmHg 89%
    01:00 -19°C° 0 mm 2 mps 594 mmHg 88%
    02:00 -19°C° 0 mm 2 mps 594 mmHg 86%
    03:00 -19°C° 0 mm 2 mps 594 mmHg 85%
    04:00 -19°C° 0 mm 2 mps 594 mmHg 83%
    05:00 -19°C° 0 mm 2 mps 594 mmHg 82%
    06:00 -18°C° 0 mm 2 mps 594 mmHg 81%
    07:00 -18°C° 0 mm 2 mps 595 mmHg 79%
    08:00 -16°C° 0.1 mm 2 mps 596 mmHg 81%
    09:00 -15°C° 0.1 mm 2 mps 596 mmHg 82%
    10:00 -13°C° 0.1 mm 2 mps 597 mmHg 84%
    11:00 -12°C° 0.2 mm 2 mps 597 mmHg 84%
    12:00 -10°C° 0.2 mm 2 mps 597 mmHg 85%
    13:00 -9°C° 0.2 mm 2 mps 597 mmHg 85%
    14:00 -9°C° 0.8 mm 2 mps 596 mmHg 87%
    15:00 -9°C° 0.8 mm 2 mps 596 mmHg 90%
    16:00 -9°C° 0.8 mm 2 mps 595 mmHg 93%
    17:00 -9°C° 1.6 mm 2 mps 595 mmHg 93%
    18:00 -9°C° 1.6 mm 2 mps 595 mmHg 94%
    19:00 -9°C° 1.6 mm 2 mps 595 mmHg 95%
    20:00 -9°C° 1.5 mm 2 mps 596 mmHg 95%
    21:00 -8°C° 1.5 mm 2 mps 596 mmHg 96%
    22:00 -8°C° 1.5 mm 2 mps 596 mmHg 96%
    23:00 -8°C° 0.8 mm 2 mps 596 mmHg 96%
    Show more